Location: Brno
(49.2000°N, 16.6330°E)
Time: 07:25:09
(UTC+02:00)

Iridium 2 - Visible Passes

Search period start: 29 March 2017 00:00
Search period end: 08 April 2017 00:00
Orbit: 509 x 524 km, 85.5° (Epoch: 27 March)

Date Brightness Start Highest point End Pass type
(mag) Time Alt. Az. Time Alt. Az. Time Alt. Az.
29 Mar 6.3 04:23:51 10° NNE 04:26:53 22° ENE 04:29:55 10° SE visible
29 Mar 4.4 05:58:54 10° NNW 06:02:22 32° W 06:05:49 10° SSW visible
30 Mar 6.6 04:09:32 10° NNE 04:12:15 18° ENE 04:14:58 10° ESE visible
30 Mar 4.1 05:44:15 10° NNW 05:47:51 40° W 05:51:28 10° SSW visible
31 Mar 6.8 03:55:18 10° NE 03:57:37 15° ENE 03:59:56 10° ESE visible
31 Mar 3.9 05:29:36 10° NNW 05:33:20 50° W 05:37:04 10° SSW visible
01 Apr 6.9 03:41:12 10° NE 03:42:58 13° ENE 03:44:44 10° E visible
01 Apr 3.7 05:15:00 10° N 05:18:48 62° W 05:22:36 10° S visible
02 Apr 7.1 03:27:31 10° NE 03:28:18 10° ENE 03:29:05 10° E visible
02 Apr 3.6 05:00:25 10° N 05:04:16 78° W 05:08:06 10° S visible
03 Apr 3.7 04:45:50 10° N 04:49:42 84° E 04:53:33 10° S visible
04 Apr 4.0 04:31:17 10° N 04:35:08 68° E 04:38:58 10° SSE visible
05 Apr 4.4 04:16:45 10° N 04:20:33 54° E 04:24:20 10° SSE visible
06 Apr 4.8 04:02:14 10° N 04:05:57 43° E 04:09:38 10° SSE visible
06 Apr 5.3 05:38:30 10° NW 05:41:01 17° W 05:43:32 10° WSW visible
07 Apr 5.2 03:47:45 10° N 03:51:20 35° ENE 03:54:32 12° SE visible
07 Apr 5.1 05:23:38 10° NW 05:26:31 20° W 05:29:23 10° SW visible
